STARLINK-4738 (53819 NORAD) Tracking and Keplerian Element Data

This shows tracking and keplerian element data for the satellite.

Feedback or suggestion? Click here.




ElementValue
Catalog53819
NameSTARLINK-4738
Epoch Orbit1046
Epoch Day325.33334491
Epoch Year2022
RAAN310.8938
Inclination53.2172
Eccentricity0.0001378
Argument of Perigee74.7068
Mean Anonmoly207.0608
Mean Motion15.13643304
Decay Rate-0.01146929
L11 53819U 22114B 22325.33334491 -.01146929 00000+0 -68473-1 0 9992
L22 53819 53.2172 310.8938 0001378 74.7068 207.0608 15.13643304 10465



Live tracking and technical data element details for STARLINK-4738 (NORAD 53819). STARLINK-4738 can be tracked NOW for your location showing map with azimuth and elevation plus other details from your city location.







IsCatalogInMostPopularTable: catalog: 53819, numindb: 2
Update: records affected: 1



GetName: 53819 STARLINK-4738

Hit Count: updated at: Thu, 08 Dec 2022 09:21:53 GMT